| time (UTC) | temp C | wind direction | speed KPH | gust KPH | rain 1hr cm | rain 24hr cm | rain mn cm | humidity % | barometer mb |
| 20260507052902 | 12 | 29 | 0.0 | 4.8 | 0.00 | 0.03 | 0.00 | 87 | 1017.7 |
| 20260507051830 | 12 | 42 | 0.0 | 3.2 | 0.00 | 0.03 | 0.00 | 86 | 1017.8 |
| 20260507050844 | 12 | 48 | 0.0 | 3.2 | 0.00 | 0.03 | 0.00 | 86 | 1017.7 |
| 20260507045833 | 13 | 36 | 1.6 | 6.4 | 0.00 | 0.03 | 0.03 | 85 | 1017.8 |
| 20260507044824 | 13 | 24 | 0.0 | 6.4 | 0.00 | 0.03 | 0.03 | 85 | 1017.8 |
| 20260507043844 | 13 | 34 | 1.6 | 9.7 | 0.00 | 0.03 | 0.03 | 85 | 1018.0 |
| 20260507042905 | 13 | 11 | 1.6 | 9.7 | 0.00 | 0.03 | 0.03 | 85 | 1017.9 |
| 20260507041839 | 13 | 10 | 1.6 | 8.0 | 0.00 | 0.03 | 0.03 | 85 | 1018.0 |
| 20260507034624 | 13 | 50 | 3.2 | 11.3 | 0.00 | 0.03 | 0.03 | 85 | 1018.0 |
| 20260507033633 | 13 | 355 | 3.2 | 11.3 | 0.00 | 0.03 | 0.03 | 85 | 1017.9 |
| 20260507032613 | 13 | 346 | 1.6 | 12.9 | 0.00 | 0.03 | 0.03 | 84 | 1017.9 |
| 20260507031605 | 13 | 0 | 4.8 | 12.9 | 0.00 | 0.03 | 0.03 | 84 | 1017.7 |
| 20260507030617 | 13 | 5 | 6.4 | 12.9 | 0.00 | 0.03 | 0.03 | 84 | 1017.6 |
| 20260507025613 | 13 | 339 | 4.8 | 12.9 | 0.00 | 0.03 | 0.03 | 84 | 1017.5 |
| 20260507024614 | 13 | 32 | 4.8 | 12.9 | 0.00 | 0.03 | 0.03 | 84 | 1017.3 |
| 20260507022453 | 14 | 27 | 6.4 | 14.5 | 0.00 | 0.03 | 0.03 | 84 | 1016.9 |
| 20260507021421 | 14 | 13 | 4.8 | 14.5 | 0.00 | 0.03 | 0.03 | 84 | 1016.8 |
| 20260507020347 | 14 | 16 | 6.4 | 12.9 | 0.00 | 0.03 | 0.03 | 84 | 1016.4 |
| 20260507015354 | 14 | 12 | 6.4 | 12.9 | 0.00 | 0.03 | 0.03 | 85 | 1016.1 |
| 20260507014351 | 14 | 0 | 4.8 | 12.9 | 0.00 | 0.03 | 0.03 | 85 | 1015.9 |
| 20260507013322 | 14 | 5 | 4.8 | 12.9 | 0.00 | 0.03 | 0.03 | 85 | 1015.7 |
| 20260507012252 | 14 | 41 | 4.8 | 17.7 | 0.00 | 0.03 | 0.03 | 85 | 1015.5 |
| 20260507011242 | 14 | 18 | 6.4 | 17.7 | 0.00 | 0.03 | 0.03 | 85 | 1015.4 |
| 20260507010234 | 14 | 32 | 6.4 | 14.5 | 0.00 | 0.03 | 0.03 | 84 | 1015.4 |
| 20260507005225 | 14 | 26 | 6.4 | 17.7 | 0.00 | 0.03 | 0.03 | 85 | 1015.3 |
| 20260507004205 | 14 | 11 | 6.4 | 17.7 | 0.00 | 0.03 | 0.03 | 85 | 1015.1 |
| 20260507003136 | 14 | 32 | 8.0 | 17.7 | 0.00 | 0.03 | 0.03 | 85 | 1015.0 |
| 20260507002135 | 14 | 13 | 8.0 | 17.7 | 0.00 | 0.03 | 0.03 | 85 | 1014.8 |
| 20260507001105 | 14 | 19 | 8.0 | 17.7 | 0.00 | 0.03 | 0.03 | 84 | 1014.8 |
| 20260506235031 | 14 | 355 | 9.7 | 20.9 | 0.00 | 0.03 | 0.03 | 84 | 1014.6 |
| 20260506231816 | 14 | 5 | 9.7 | 19.3 | 0.00 | 0.03 | 0.03 | 84 | 1014.5 |
| 20260506230751 | 14 | 0 | 8.0 | 19.3 | 0.00 | 0.03 | 0.03 | 84 | 1014.6 |
| 20260506225804 | 14 | 331 | 8.0 | 19.3 | 0.00 | 0.03 | 0.03 | 84 | 1014.4 |
| 20260506224825 | 14 | 329 | 8.0 | 17.7 | 0.00 | 0.03 | 0.03 | 84 | 1014.3 |
| 20260506223802 | 14 | 0 | 8.0 | 20.9 | 0.00 | 0.03 | 0.03 | 84 | 1014.5 |
| 20260506222740 | 14 | 337 | 8.0 | 20.9 | 0.00 | 0.03 | 0.03 | 84 | 1014.2 |
| 20260506221736 | 14 | 33 | 6.4 | 17.7 | 0.00 | 0.03 | 0.03 | 84 | 1013.9 |
| 20260506220717 | 14 | 343 | 6.4 | 14.5 | 0.00 | 0.03 | 0.03 | 84 | 1013.9 |
| 20260506215707 | 14 | 323 | 8.0 | 17.7 | 0.00 | 0.03 | 0.03 | 84 | 1014.0 |
| 20260506214637 | 14 | 333 | 8.0 | 19.3 | 0.00 | 0.03 | 0.03 | 84 | 1014.1 |
| 20260506213621 | 14 | 9 | 9.7 | 19.3 | 0.00 | 0.03 | 0.03 | 83 | 1014.2 |
| 20260506212644 | 14 | 355 | 8.0 | 19.3 | 0.00 | 0.03 | 0.03 | 83 | 1014.0 |
| 20260506205324 | 13 | 33 | 6.4 | 14.5 | 0.00 | 0.03 | 0.03 | 84 | 1014.2 |
| 20260506204301 | 13 | 295 | 8.0 | 16.1 | 0.00 | 0.03 | 0.03 | 84 | 1014.6 |
| 20260506203240 | 13 | 348 | 4.8 | 16.1 | 0.00 | 0.03 | 0.03 | 85 | 1014.6 |
| 20260506202244 | 13 | 331 | 4.8 | 16.1 | 0.00 | 0.03 | 0.03 | 84 | 1014.7 |
| 20260506201229 | 13 | 348 | 8.0 | 16.1 | 0.00 | 0.03 | 0.03 | 84 | 1014.5 |
| 20260506200215 | 13 | 344 | 6.4 | 14.5 | 0.00 | 0.03 | 0.03 | 84 | 1014.8 |
| 20260506195231 | 13 | 323 | 6.4 | 12.9 | 0.00 | 0.03 | 0.03 | 85 | 1014.4 |
| 20260506194228 | 13 | 5 | 6.4 | 17.7 | 0.00 | 0.03 | 0.03 | 85 | 1014.6 |
| 20260506193226 | 13 | 319 | 6.4 | 17.7 | 0.00 | 0.03 | 0.03 | 85 | 1014.5 |
| 20260506192212 | 13 | 321 | 4.8 | 14.5 | 0.00 | 0.03 | 0.03 | 85 | 1014.7 |
| 20260506191233 | 13 | 17 | 4.8 | 14.5 | 0.00 | 0.03 | 0.03 | 85 | 1014.6 |
| 20260506190209 | 13 | 16 | 8.0 | 19.3 | 0.00 | 0.03 | 0.03 | 84 | 1014.0 |
| 20260506185216 | 13 | 343 | 9.7 | 24.1 | 0.00 | 0.03 | 0.03 | 85 | 1013.7 |
| 20260506184144 | 13 | 355 | 12.9 | 27.4 | 0.00 | 0.03 | 0.03 | 86 | 1013.2 |
| 20260506183205 | 13 | 327 | 12.9 | 27.4 | 0.00 | 0.03 | 0.03 | 87 | 1013.0 |
| 20260506182139 | 12 | 11 | 8.0 | 17.7 | 0.00 | 0.03 | 0.03 | 87 | 1013.3 |
| 20260506181107 | 12 | 0 | 9.7 | 20.9 | 0.00 | 0.03 | 0.03 | 88 | 1013.6 |
| 20260506174927 | 12 | 9 | 6.4 | 16.1 | 0.00 | 0.03 | 0.03 | 89 | 1013.5 |
| 20260506173936 | 12 | 37 | 6.4 | 17.7 | 0.00 | 0.03 | 0.03 | 89 | 1013.6 |
| 20260506172953 | 12 | 336 | 8.0 | 22.5 | 0.00 | 0.03 | 0.03 | 89 | 1013.9 |
| 20260506171947 | 12 | 5 | 9.7 | 22.5 | 0.00 | 0.03 | 0.03 | 89 | 1014.2 |
| 20260506170957 | 12 | 355 | 11.3 | 20.9 | 0.00 | 0.03 | 0.03 | 90 | 1014.4 |
| 20260506170005 | 12 | 348 | 9.7 | 19.3 | 0.00 | 0.03 | 0.03 | 89 | 1015.2 |
| 20260506164952 | 12 | 20 | 6.4 | 14.5 | 0.00 | 0.03 | 0.03 | 89 | 1015.0 |
| 20260506163956 | 12 | 24 | 4.8 | 16.1 | 0.00 | 0.03 | 0.03 | 89 | 1014.8 |
| 20260506162938 | 12 | 17 | 8.0 | 20.9 | 0.00 | 0.03 | 0.03 | 89 | 1014.3 |
| 20260506161924 | 12 | 30 | 8.0 | 20.9 | 0.00 | 0.03 | 0.03 | 89 | 1013.6 |
| 20260506160936 | 11 | 34 | 0.0 | 0.0 | 0.00 | 0.00 | 0.00 | 88 | 1015.6 |
| 20260506160000 | 11 | 310 | 0.0 | 0.0 | 0.00 | 0.00 | 0.00 | 87 | 1016.1 |
| 20260506154957 | 11 | 302 | 3.2 | 20.9 | 0.00 | 0.00 | 0.00 | 86 | 1015.6 |
| 20260506154014 | 11 | 9 | 8.0 | 32.2 | 0.00 | 0.00 | 0.00 | 85 | 1014.5 |
| 20260506152950 | 12 | 309 | 14.5 | 32.2 | 0.00 | 0.00 | 0.00 | 85 | 1014.1 |
| 20260506151926 | 12 | 276 | 8.0 | 17.7 | 0.00 | 0.00 | 0.00 | 85 | 1014.8 |
| 20260506150929 | 11 | 0 | 11.3 | 20.9 | 0.00 | 0.00 | 0.00 | 85 | 1014.1 |
| 20260506145940 | 11 | 11 | 6.4 | 20.9 | 0.00 | 0.00 | 0.00 | 85 | 1014.6 |
| 20260506144906 | 11 | 344 | 8.0 | 20.9 | 0.00 | 0.00 | 0.00 | 85 | 1014.6 |
| 20260506143915 | 11 | 331 | 9.7 | 24.1 | 0.00 | 0.00 | 0.00 | 85 | 1014.5 |
| 20260506142940 | 11 | 350 | 9.7 | 24.1 | 0.00 | 0.00 | 0.00 | 86 | 1013.9 |
| 20260506135648 | 11 | 0 | 11.3 | 22.5 | 0.00 | 0.00 | 0.00 | 86 | 1013.5 |
| 20260506134650 | 11 | 332 | 8.0 | 22.5 | 0.00 | 0.00 | 0.00 | 87 | 1013.4 |
| 20260506133713 | 11 | 346 | 9.7 | 19.3 | 0.00 | 0.00 | 0.00 | 87 | 1013.4 |
| 20260506132733 | 11 | 22 | 12.9 | 22.5 | 0.00 | 0.00 | 0.00 | 87 | 1013.1 |
| 20260506130618 | 11 | 329 | 9.7 | 24.1 | 0.00 | 0.00 | 0.00 | 88 | 1013.2 |
| 20260506125619 | 11 | 5 | 11.3 | 22.5 | 0.00 | 0.00 | 0.00 | 88 | 1013.1 |
| 20260506124605 | 11 | 15 | 11.3 | 22.5 | 0.00 | 0.00 | 0.00 | 88 | 1012.7 |
| 20260506123537 | 11 | 337 | 9.7 | 22.5 | 0.00 | 0.00 | 0.00 | 88 | 1012.8 |
| 20260506122540 | 11 | 323 | 11.3 | 22.5 | 0.00 | 0.00 | 0.00 | 88 | 1012.7 |
| 20260506121602 | 11 | 318 | 9.7 | 22.5 | 0.00 | 0.00 | 0.00 | 87 | 1012.8 |
| 20260506120533 | 11 | 334 | 8.0 | 19.3 | 0.00 | 0.00 | 0.00 | 87 | 1012.5 |
| 20260506115503 | 11 | 342 | 11.3 | 24.1 | 0.00 | 0.00 | 0.00 | 87 | 1012.3 |
| 20260506114523 | 11 | 331 | 14.5 | 29.0 | 0.00 | 0.00 | 0.00 | 86 | 1012.0 |
| 20260506113518 | 11 | 340 | 14.5 | 29.0 | 0.00 | 0.00 | 0.00 | 86 | 1012.0 |
| 20260506112535 | 11 | 343 | 16.1 | 29.0 | 0.00 | 0.00 | 0.00 | 85 | 1011.8 |
| 20260506110424 | 11 | 5 | 11.3 | 20.9 | 0.00 | 0.00 | 0.00 | 84 | 1011.6 |
| 20260506105446 | 11 | 342 | 12.9 | 24.1 | 0.00 | 0.00 | 0.00 | 84 | 1011.4 |
| 20260506104425 | 11 | 315 | 11.3 | 24.1 | 0.00 | 0.00 | 0.00 | 83 | 1011.2 |
| 20260506103419 | 11 | 319 | 9.7 | 20.9 | 0.00 | 0.00 | 0.00 | 83 | 1011.0 |
| 20260506102422 | 11 | 16 | 9.7 | 22.5 | 0.00 | 0.00 | 0.00 | 83 | 1010.8 |
| 20260506101436 | 11 | 321 | 12.9 | 22.5 | 0.00 | 0.00 | 0.00 | 82 | 1010.7 |
| 20260506100456 | 11 | 319 | 6.4 | 16.1 | 0.00 | 0.00 | 0.00 | 82 | 1010.7 |
| 20260506094355 | 12 | 346 | 4.8 | 19.3 | 0.00 | 0.00 | 0.00 | 82 | 1010.4 |
| 20260506093355 | 12 | 355 | 6.4 | 19.3 | 0.00 | 0.00 | 0.00 | 81 | 1010.4 |
| 20260506092402 | 12 | 13 | 8.0 | 25.7 | 0.00 | 0.00 | 0.00 | 81 | 1010.3 |
| 20260506091330 | 12 | 342 | 6.4 | 25.7 | 0.00 | 0.00 | 0.00 | 81 | 1010.1 |
| 20260506090303 | 12 | 327 | 8.0 | 20.9 | 0.00 | 0.00 | 0.00 | 81 | 1009.8 |
| 20260506085230 | 12 | 355 | 9.7 | 20.9 | 0.00 | 0.00 | 0.00 | 80 | 1009.8 |
| 20260506084236 | 12 | 324 | 4.8 | 22.5 | 0.00 | 0.00 | 0.00 | 80 | 1009.7 |
| 20260506083215 | 12 | 9 | 12.9 | 22.5 | 0.00 | 0.00 | 0.00 | 79 | 1009.9 |
| 20260506082221 | 12 | 355 | 4.8 | 16.1 | 0.00 | 0.00 | 0.00 | 79 | 1009.8 |
| 20260506081211 | 12 | 342 | 4.8 | 16.1 | 0.00 | 0.00 | 0.00 | 79 | 1009.4 |
| 20260506080139 | 12 | 342 | 4.8 | 12.9 | 0.00 | 0.00 | 0.00 | 79 | 1009.2 |
| 20260506073101 | 12 | 23 | 4.8 | 16.1 | 0.00 | 0.00 | 0.00 | 79 | 1009.3 |
| 20260506070929 | 12 | 336 | 8.0 | 24.1 | 0.00 | 0.00 | 0.00 | 79 | 1009.4 |
| 20260506061708 | 13 | 334 | 12.9 | 25.7 | 0.00 | 0.00 | 0.00 | 80 | 1009.4 |
| 20260506060721 | 13 | 331 | 12.9 | 24.1 | 0.00 | 0.00 | 0.00 | 80 | 1009.3 |